www.pogodaiklimat.ru

Погода и климат >> Архив погоды >> Южная Африка >> Тигерхук


ПОГОДА в Тигерхуке

  • Прогноз погоды в Тигерхуке
  • Монитор погоды в Тигерхуке

АРХИВ ПОГОДЫ в Тигерхуке

Время (UTC), дата Ветер
(напр.,м/с)
 
Видим.   Явления Облачность Т
(С)
Тd
(С)
f
(%)
Тe
(С)
Тes
(С)
Комфортность P
(гПа)
Po
(гПа)
Тmin
(С)
Tmax
(С)
R
(мм)
R24
(мм)
S
(см)
00 12.06 ЮЗ 5 н/о н/о +15.9 +9.4 65 +15 +15 998.4 +15.5 +27.5
03 12.06 З 6 н/о н/о +14.1 +9.1 72 +12 +12 999.4 +14.1 +27.5
06 12.06 З 5 н/о н/о +13.5 +6.6 63 +12 +12 1002.3 +13.4
09 12.06 З 8 н/о н/о +16.1 +6.6 53 +15 +15 1005.3 +13.2 +16.1
12 12.06 З 7 н/о н/о +15.3 +8.6 64 +14 +14 1006.4 +11.3 +16.8 0.6
15 12.06 З 5 н/о н/о +13.0 +6.4 64 +11 +11 1009.5 +12.5 +16.8
18 12.06 З 3 н/о н/о +10.7 +7.7 82 +9 +9 1012.6 +10.5 +16.8 0.8
21 12.06 З 2 н/о н/о +9.9 +7.8 87 +9 +9 1014.0 +9.4 +16.8
00 13.06 З 1 н/о н/о +5.9 +5.0 94 +5 +5 1014.8 +5.9 +16.8 1
03 13.06 штиль 0 н/о н/о +5.0 +4.2 95 +4 +4 1015.1 +4.9 +16.8
06 13.06 штиль 0 н/о н/о +2.6 +2.1 97 +1 +1 1016.8 +2.6 1
09 13.06 З 1 н/о н/о +12.3 +7.2 71 +12 +12 1016.4 +2.5 +12.3
12 13.06 З 2 н/о н/о +16.5 +3.9 43 +17 +17 1013.2 +2.5 +16.9
15 13.06 СЗ 2 н/о н/о +15.9 +6.1 52 +16 +16 1012.6 +15.9 +16.9
18 13.06 штиль 0 н/о н/о +6.8 +5.2 90 +6 +6 1013.4 +6.7 +16.9
21 13.06 штиль 0 н/о н/о +3.4 +2.5 94 +2 +2 1012.4 +3.4 +16.9
00 14.06 З 2 н/о н/о +2.4 +1.8 96 -0 -0 1011.1 +2.2 +16.9
03 14.06 З 2 н/о н/о +1.8 +1.5 98 -1 -1 1010.5 +1.3 +16.9
06 14.06 ЮЗ 2 н/о н/о +1.6 +1.1 96 -2 -2 1011.4 +1.1
09 14.06 штиль 0 н/о н/о +12.5 +5.9 64 +12 +12 1011.0 +1.1 +12.5
12 14.06 ЮЗ 2 н/о н/о +18.7 +3.8 37 +20 +20 1008.2 +1.1 +18.7 0.2
15 14.06 С 2 н/о н/о +17.4 +4.4 42 +18 +18 1006.9 +17.4 +21.6
18 14.06 З 2 н/о н/о +6.1 +4.2 88 +4 +4 1006.5 +6.1 +21.6 0.4
21 14.06 ЮЗ 2 н/о н/о +4.4 +2.7 89 +2 +2 1006.5 +4.4 +21.6
00 15.06 ЮЗ 2 н/о н/о +2.3 +1.5 94 -1 -1 1004.5 +2.1 +21.6 0.4
03 15.06 З 2 н/о н/о +1.9 +1.3 96 -2 -2 1003.0 +1.3 +21.6
06 15.06 З 2 н/о н/о +1.8 +1.2 96 -2 -2 1003.5 +1.1 0.4
09 15.06 З 2 н/о н/о +14.6 +6.7 59 +14 +14 1005.0 +1.1 +14.6
12 15.06 З 3 н/о н/о +20.7 +4.4 34 +22 +22 комфорт 1003.2 +1.1 +20.9 0.2
15 15.06 Ю 3 н/о н/о +17.9 +9.3 57 +18 +18 1003.5 +17.9 +21.7
18 15.06 штиль 0 н/о н/о +8.4 +6.8 90 +8 +8 1004.8 +8.4 +21.7 0.2
21 15.06 ЮЗ 2 н/о н/о +4.9 +4.3 96 +3 +3 1005.5 +4.9 +21.7
03 16.06 З 1 н/о н/о +1.5 +1.2 98 -1 -1 1003.3 +1.2 +21.7
06 16.06 З 2 н/о н/о +0.2 -0.0 99 -3 -3 1002.6 -0.1 0.2
09 16.06 СЗ 2 н/о н/о +12.0 +7.7 75 +11 +11 1002.6 -0.1 +12.0
12 16.06 З 2 н/о н/о +21.7 +8.0 41 +23 +23 комфорт 999.2 -0.1 +21.7
15 16.06 С 1 н/о н/о +20.9 +5.0 35 +23 +23 комфорт 999.1 +20.9 +24.9
18 16.06 ЮЗ 1 н/о н/о +8.3 +6.4 88 +7 +7 1001.1 +8.1 +24.9
21 16.06 З 1 н/о н/о +5.7 +4.6 93 +4 +4 1001.4 +5.5 +24.9
00 17.06 ЮЗ 1 н/о н/о +5.0 +3.9 93 +4 +4 1002.2 +4.5 +24.9
03 17.06 ЮЗ 1 н/о н/о +3.2 +2.4 94 +1 +1 1001.9 +3.1 +24.9
06 17.06 СВ 1 н/о н/о +1.9 +1.4 96 -0 -0 1003.0 +1.8
09 17.06 З 2 н/о н/о +11.7 +7.8 77 +11 +11 1004.4 +1.4 +11.8
12 17.06 В 1 н/о н/о +18.8 +8.2 50 +20 +20 1003.5 +1.4 +19.8
15 17.06 штиль 0 н/о н/о +18.9 +9.2 53 +19 +19 1004.2 +18.5 +20.4
18 17.06 СВ 2 н/о н/о +8.6 +7.0 90 +7 +7 1005.6 +8.3 +20.4
00 18.06 ЮЗ 2 н/о н/о +4.0 +3.4 96 +2 +2 1007.1 +3.3 +20.4
03 18.06 штиль 0 н/о н/о +1.9 +1.4 96 +1 +1 1006.5 +1.9 +20.4
06 18.06 ЮЗ 1 н/о н/о +0.5 +0.2 98 -2 -2 1006.6 +0.4
09 18.06 З 3 н/о н/о +11.6 +8.6 82 +10 +10 1006.4 +0.4 +11.6
12 18.06 В 1 н/о н/о +21.9 +9.2 44 +23 +23 комфорт 1003.1 +0.4 +22.0
15 18.06 В 1 н/о н/о +20.8 +12.6 59 +24 +24 комфорт 1001.7 +20.8 +25.9
18 18.06 ЮЗ 1 н/о н/о +11.2 +8.7 85 +11 +11 1002.8 +10.9 +25.9
21 18.06 ЮЗ 2 н/о н/о +10.4 +8.0 85 +9 +9 1003.3 +9.8 +25.9

 

Местоположение метеостанции Тигерхук (Южная Африка): широта -34.15 долгота 19.90 высота над уровнем моря 151 м.

В архиве по умолчанию представлена погода в Тигерхуке за последнюю неделю. Архивные данные за месяц целиком и за предыдущие месяцы, начиная с января 2011 года, Вы можете получить, выбрав интересующий диапазон дат из раскрывающегося списка и нажав кнопку "Ввод!".


*Определитесь, кто Вы:
робот инопланетянин человек

Внимание! Время в таблицах - всемирное. Для получения местного времени необходимо прибавить поправку, которая равна 2 ч.

Смотрите также архив погоды в соседних городах и на ближайших метеорологических станциях:

Погода в Робертсоне (Южная Африка) (39 км)
Погода в Херманусе (Южная Африка) (70 км)
Погода в Вустере (Южная Африка) (72 км)
Погода в Струисбааи (Южная Африка) (74 км)
Погода на Мысе Игольном (Южная Африка) (76 км)
Погода в Странде (Южная Африка) (97 км)
Погода в Парле (Южная Африка) (98 км)
Погода в Кейптауне аэропорту (Южная Африка) (122 км)
Погода в Кейптауне аэропорту АМС (Южная Африка) (122 км)
Погода в Риверсдейле (Южная Африка) (125 км)

Пояснения к столбцам:

Ветер - указаны скорость ветра в м/с - средняя за 10 мин, порывы в срок и между сроками (в фигурных скобках) и направление, откуда дует ветер: С - северный, СВ - северо-восточный, В - восточный, ЮВ - юго-восточный, Ю - южный, ЮЗ - юго-западный, З - западный, СЗ - северо-западный.
Видимость - горизонтальная дальность видимости в метрах или километрах. При видимости от 1 до 10 км при отсутствии осадков обычно наблюдается дымка, при ухудшении видимости до 1 км и менее - туман. В сухую погоду видимость может ухудшаться дымом, пылью или мглою.
Явления - указаны атмосферные явления, наблюдавшиеся в срок или в последний час перед сроком; фигурными скобками обозначены явления, наблюдавшиеся между сроками (за 1-3 часа до срока); квадратными скобками обозначены град или гололедные отложения с указанием их диаметра в мм.
Облачность - указаны через наклонную черту общая и нижняя облачность в баллах и высота нижней границы облаков в метрах; квадратными скобками обозначены формы облаков: Ci - перистые, Cs - перисто-слоистые, Cc - перисто-кучевые, Ac - высококучевые, As - высокослоистые, Sc - слоисто-кучевые, Ns - слоисто-дождевые, Cu - кучевые, Cb - кучево-дождевые. Подробнее классификацию облаков см. в Атласе облаков (PDF).
T - Температура воздуха - температура, измеренная на высоте 2 м над землей.
Td - Температура точки росы - температура, при понижении до которой содержащийся в воздухе водяной пар достигнет насыщения.
f - Относительная влажность воздуха - влажноcть воздуха, измеренная на высоте 2 м над землей.
Te - Эффективная температура - температура, которую ощущает одетый по сезону человек в тени. Характеристика душности погоды. При расчете учитывается влияние влажности воздуха и скорости ветра на теплоощущения человека.
Tes - Эффективная температура на солнце - температура, которую ощущает человек, с поправкой на солнечный нагрев. Характеристика знойности погоды. Зависит от высоты солнца над горизонтом, облачности и скорости ветра. Ночью, в пасмурную погоду, а также при ветре 12 м/с и более поправка равна нулю.
P - Атмосферное давление - приведенное к уровню моря атмосферное давление.
Po - Атмосферное давление - измеренное на уровне метеостанции атмосферное давление.
Tmin - Минимальная температура - минимум температуры воздуха на высоте 2 м над землей.
Tmax - Максимальная температура - максимум температуры воздуха на высоте 2 м над землей.
R - Количество осадков - Количество выпавших осадков за период времени, мм. При наведении курсора мыши на число - период времени, за который выпало указанное количество осадков.
R24 - Количество осадков - Количество выпавших осадков за 24 часа, мм.
S - Снежный покров - Высота снежного покрова, см. При наведении курсора мыши на число - состояние снежного покрова и степень покрытия местности в баллах.